Theta_e
295 295 295 295 295 295 295 296 296 297 296 296 296 296 296 295 294 293 291 290 290 290 290 289 289 289 288 288 288 287 287 285 284 284 284 283 283 283 282 282 282 281 281 280 280 279 279 279 278 278 278 278 277 278 277 278 278 278 278 278 278 278 279 277 276 274 275 276 276 276 276 276 275 276 275 276 276 277 281 277 277 277 276 277 277
295 294 294 295 295 295 295 295 296 296 295 295 294 294 295 295 294 291 289 289 289 289 289 289 289 288 288 288 287 287 287 285 283 284 284 283 282 282 282 281 281 280 280 279 279 279 279 278 278 277 277 278 278 277 277 277 277 277 277 278 278 278 278 277 276 276 275 275 275 276 275 276 274 275 275 275 275 276 276 276 277 276 276 276 276
295 295 294 294 294 294 294 294 294 294 294 294 293 292 293 293 292 290 289 288 288 289 289 288 288 287 287 287 287 286 285 284 283 283 283 283 282 282 282 281 281 280 280 279 278 278 278 278 277 277 278 277 277 277 277 277 277 277 277 277 278 278 277 276 276 275 274 274 274 275 275 275 275 274 275 275 276 276 275 275 276 278 278 277 276
295 294 293 293 293 292 292 292 292 292 293 293 292 292 293 292 290 290 289 288 287 288 288 287 287 287 286 286 286 285 284 283 282 283 283 283 282 282 281 280 280 280 280 279 278 278 278 278 277 278 277 277 276 276 276 276 276 276 277 277 277 277 277 276 276 275 275 274 274 275 274 274 274 274 275 276 275 275 276 276 276 276 276 277 275
294 293 292 292 291 291 291 291 291 291 292 292 292 292 292 292 289 289 288 287 287 286 286 286 286 286 286 285 285 285 284 283 282 282 282 282 282 281 280 280 280 280 280 280 280 279 278 278 278 277 277 276 276 276 276 276 276 276 277 277 277 277 277 277 276 275 274 274 273 273 274 273 274 274 275 275 274 274 275 275 275 275 275 275 276
293 293 292 291 291 291 291 290 290 291 291 291 291 291 291 291 289 289 288 287 287 286 285 285 285 285 285 285 285 285 285 283 282 282 282 282 281 281 280 280 280 280 280 279 279 278 278 277 277 278 277 277 277 277 277 276 276 277 277 277 276 276 276 276 276 275 274 273 273 273 274 274 273 274 274 275 275 274 274 274 274 274 274 273 274
292 292 291 291 291 291 291 291 290 290 290 291 291 291 290 290 289 288 287 288 287 286 285 284 285 285 284 284 284 284 284 283 282 281 281 281 281 280 279 279 278 278 278 278 278 278 278 278 278 278 278 278 278 277 277 277 277 277 277 277 276 276 276 276 275 274 274 273 273 274 273 274 274 272 274 275 274 274 273 273 273 274 272 272 273
292 291 291 291 291 291 291 291 290 290 289 290 290 290 291 290 289 288 287 287 286 286 285 285 284 284 284 284 284 284 283 282 282 281 281 281 281 280 279 278 277 277 277 278 278 278 278 279 279 279 279 279 278 278 278 277 277 277 277 277 276 276 275 275 274 274 274 274 274 273 273 273 273 274 274 274 273 273 274 273 272 271 272 272 272
292 291 291 291 292 292 291 290 290 289 289 289 290 290 290 290 289 288 287 287 287 286 286 285 284 284 283 283 282 282 282 282 282 281 281 280 280 279 278 278 278 278 278 278 278 278 278 278 278 279 279 280 281 281 280 280 278 277 276 277 276 276 276 275 275 274 274 274 273 274 273 273 273 273 272 273 273 273 273 272 271 271 271 271 271
292 291 291 292 292 291 290 289 289 288 289 289 289 290 290 290 289 288 287 287 287 286 285 285 284 283 283 282 282 282 282 282 283 285 284 281 280 280 279 278 278 278 278 278 277 278 278 278 279 281 281 281 282 282 283 282 282 279 278 277 277 276 275 274 274 274 274 273 273 273 272 272 272 273 273 273 274 273 272 271 271 271 270 270 271
292 291 291 292 291 289 289 289 288 288 288 288 288 289 289 289 288 288 287 287 286 285 285 284 284 283 283 282 282 282 282 282 284 287 287 286 281 280 279 278 278 278 278 278 277 277 278 278 278 280 281 281 281 283 283 283 283 282 282 281 280 277 275 275 274 274 273 273 273 273 273 273 273 274 274 274 273 273 273 272 272 270 269 267 267
292 292 292 291 290 289 289 289 288 288 288 288 288 288 288 288 288 287 287 286 286 285 284 284 284 283 283 283 282 282 282 284 287 288 288 287 284 280 279 279 279 278 278 278 278 278 277 278 278 279 279 279 280 282 283 284 284 283 283 282 282 282 281 277 275 274 274 273 272 273 273 273 273 274 274 273 273 272 272 271 270 270 269 268 268
292 291 291 290 289 289 289 288 288 288 288 287 287 287 287 287 287 287 286 286 286 284 284 284 284 283 283 282 282 282 282 285 288 288 289 288 286 283 280 279 279 279 278 278 278 278 278 277 277 278 278 281 281 280 281 282 284 284 283 283 283 283 283 283 282 277 276 274 274 273 274 274 273 274 274 273 275 272 271 270 270 269 269 268 268
291 292 291 290 289 288 288 287 287 288 287 287 286 286 286 287 287 287 287 286 285 285 284 284 284 283 283 282 282 282 281 284 288 287 288 287 287 284 279 279 279 279 279 278 278 278 278 277 277 277 278 279 278 279 280 280 281 281 281 280 280 281 283 283 283 282 279 276 275 274 275 275 274 274 274 277 274 271 269 269 267 268 267 269 269
291 291 290 289 288 288 288 287 287 287 287 286 286 286 286 286 286 286 286 286 285 285 284 284 283 284 283 282 282 281 281 285 287 288 288 288 287 285 279 279 279 279 278 278 278 278 278 278 277 277 277 278 278 278 278 278 279 279 279 279 279 278 279 280 280 280 279 277 276 275 275 275 275 275 274 275 275 273 272 271 270 269 268 269 268
291 290 289 289 289 289 288 287 287 287 286 286 286 286 286 286 286 286 286 286 286 286 285 285 284 284 283 282 282 281 282 286 287 288 288 289 288 282 279 279 278 278 278 278 278 278 278 278 277 277 277 277 280 281 280 278 277 277 277 277 277 277 277 279 281 282 280 278 276 275 275 275 278 275 276 275 274 272 271 269 268 268 268 268 268
290 290 289 289 289 288 288 288 287 287 286 286 286 286 286 285 286 286 286 286 285 285 285 285 284 284 283 282 282 282 281 284 287 287 288 289 287 281 280 279 279 278 278 278 278 278 278 278 278 277 277 277 280 283 282 280 276 276 275 275 275 275 276 277 281 282 283 282 282 281 281 281 281 282 282 282 280 276 272 271 270 270 269 268 269
289 289 289 289 289 288 288 288 287 287 286 286 286 286 286 286 286 286 285 285 285 285 285 285 284 284 283 282 282 282 282 282 286 287 288 289 285 281 280 279 279 278 278 278 278 278 278 279 279 278 278 278 281 284 283 280 276 275 275 274 273 273 274 276 276 278 282 282 282 283 283 283 283 283 284 284 284 281 273 271 272 271 269 269 267
289 289 290 289 288 288 288 288 287 287 286 286 286 286 286 286 286 285 285 285 285 285 285 284 283 283 283 283 283 282 282 282 285 287 288 288 285 281 280 279 278 278 277 277 278 278 278 280 280 280 279 279 282 284 284 281 276 275 275 274 273 273 274 275 274 274 273 273 273 274 274 276 276 274 275 280 281 280 275 275 273 271 269 269 268
290 289 288 287 287 287 287 287 287 287 287 287 286 286 286 285 284 284 284 284 284 284 284 284 283 282 282 282 282 282 282 281 284 287 287 288 285 281 280 279 278 277 277 277 277 277 278 278 280 282 282 282 283 284 284 284 278 276 275 274 273 273 274 273 273 273 273 273 272 270 270 269 270 271 272 273 276 276 274 273 271 270 269 270 268
287 287 287 287 287 287 287 287 287 287 287 287 287 285 284 284 283 283 283 282 282 283 283 283 283 282 282 281 281 281 281 281 283 287 288 287 285 282 280 279 279 278 278 278 277 277 277 277 278 282 284 283 283 284 284 285 283 277 276 274 275 275 275 271 272 275 271 270 269 269 269 270 270 271 272 273 274 275 275 275 273 273 271 269 269
286 285 286 286 287 287 287 287 287 287 287 286 284 284 283 283 283 283 282 282 282 282 282 282 282 282 281 280 280 280 280 282 283 286 288 287 285 284 280 280 280 279 278 278 278 277 278 278 277 280 284 284 284 284 284 284 285 278 277 280 280 280 275 272 271 272 271 270 270 270 271 271 271 271 272 273 273 274 274 275 275 274 274 273 270
284 285 285 285 286 286 286 286 286 286 285 285 284 283 282 282 281 282 281 281 281 281 282 281 281 280 279 279 279 279 279 281 284 285 286 286 285 284 283 282 283 281 279 278 278 278 279 278 278 280 283 284 284 284 284 284 283 282 281 282 281 281 278 272 272 271 272 272 272 271 272 272 271 271 272 272 273 274 274 274 274 274 273 273 272
283 284 284 284 284 284 284 285 285 285 284 284 283 283 281 281 280 281 281 281 280 280 281 280 280 279 278 277 278 278 279 280 283 284 285 286 286 285 285 284 284 281 281 280 280 279 279 278 278 281 282 283 284 284 284 283 282 283 284 283 283 281 278 276 274 273 273 273 272 272 272 272 272 272 272 273 273 273 273 273 273 273 272 272 272
282 283 283 283 283 283 282 283 283 283 283 283 283 281 280 279 279 278 279 280 280 280 280 280 279 278 278 277 277 277 278 279 281 283 284 285 286 286 285 284 285 284 281 281 281 281 281 281 281 282 282 283 283 283 283 283 283 283 283 283 282 280 279 278 277 276 273 273 273 273 273 273 273 273 274 274 273 273 271 271 271 270 269 267 267
282 283 283 282 281 280 281 279 280 281 282 282 283 282 281 280 280 279 279 279 280 280 280 279 279 278 277 277 276 277 277 278 279 281 283 284 285 286 285 285 284 284 283 282 282 283 283 283 282 282 282 282 281 281 280 280 283 283 283 282 281 280 279 279 278 276 275 275 274 273 273 274 274 273 273 272 271 270 270 269 268 267 267 266 265
283 281 281 279 277 278 280 279 278 278 277 278 279 279 280 280 280 279 279 280 280 280 280 279 279 278 277 277 276 276 276 277 278 279 281 282 283 284 285 284 284 284 283 282 283 282 283 282 282 282 281 282 282 281 281 281 281 281 281 280 279 279 278 278 277 276 275 273 273 272 272 272 271 270 270 270 269 269 269 268 267 267 265 264 263
282 280 278 278 278 278 279 278 279 278 278 279 278 277 277 279 279 279 279 280 280 280 279 279 279 278 278 277 277 276 276 276 277 278 279 281 282 283 284 284 283 283 283 282 282 281 282 282 282 281 281 280 280 279 278 278 278 278 276 275 275 275 276 277 277 273 271 268 267 267 268 269 269 268 268 268 268 268 267 267 266 265 264 262 261
279 276 275 275 277 277 278 278 279 278 277 276 275 277 280 280 280 280 281 282 282 281 280 280 280 280 279 278 277 276 276 276 277 280 279 281 280 281 281 282 283 284 284 283 281 280 280 280 279 278 278 278 278 277 277 276 276 277 277 276 275 274 273 274 274 273 270 269 269 269 268 267 266 266 267 266 267 267 266 266 266 265 263 263 262
276 276 276 277 276 276 276 277 276 278 278 278 277 275 280 282 280 280 280 282 284 284 284 281 281 281 280 280 280 278 277 278 280 281 281 282 282 283 282 283 283 282 284 284 281 279 279 278 278 277 277 277 277 276 276 276 276 276 276 277 276 275 274 274 274 273 272 271 271 270 269 268 267 267 266 266 266 266 266 267 264 264 262 261 260
278 278 277 277 278 278 277 277 277 277 277 277 277 276 276 278 283 283 283 283 283 284 284 283 283 283 281 280 281 282 281 282 282 282 282 282 282 282 282 283 283 283 285 282 280 278 277 277 277 277 277 277 276 276 276 276 275 275 275 275 275 275 274 274 274 273 272 271 270 270 269 269 268 267 266 266 265 265 264 265 264 262 262 261 259
280 279 278 277 278 278 277 277 277 276 275 275 276 276 276 276 277 282 283 283 283 284 284 283 283 283 283 282 280 280 282 282 282 282 282 282 282 283 283 283 283 283 284 283 277 276 276 276 275 275 275 275 275 275 275 275 275 275 274 274 274 274 274 273 272 272 270 269 269 269 269 268 267 267 267 266 266 264 264 263 263 262 262 259 259
279 278 278 277 277 277 277 277 277 276 275 275 274 276 276 276 276 276 280 283 283 283 283 283 283 283 283 283 283 281 282 282 282 282 282 282 282 282 282 282 283 283 284 280 276 274 274 274 273 273 273 273 273 273 273 274 274 274 274 273 273 273 273 273 272 269 268 268 265 265 265 266 266 266 266 266 266 264 264 263 262 262 261 260 260
278 277 277 277 277 276 276 276 276 275 275 275 276 276 276 276 276 277 276 277 279 281 283 283 283 283 283 283 282 282 282 283 283 282 282 282 282 282 282 280 282 283 281 277 274 273 272 271 271 271 271 272 271 271 271 272 272 273 273 273 273 271 271 269 267 266 263 264 264 262 262 263 265 266 266 265 265 264 264 263 260 259 259 260 258
275 275 275 276 277 277 276 276 276 276 275 275 276 276 276 275 276 276 276 276 275 275 276 279 282 283 282 282 282 282 283 283 283 282 282 282 282 282 281 278 277 278 278 272 271 271 271 271 271 270 271 271 271 271 271 271 271 271 271 271 270 269 268 266 267 266 265 262 262 261 263 264 265 266 266 265 264 263 263 262 260 259 258 256 256
275 275 275 276 276 276 276 276 276 276 276 276 277 277 276 276 276 276 276 275 275 275 275 276 276 280 281 281 282 282 282 282 282 282 281 282 282 282 276 274 275 275 274 272 271 271 271 270 270 270 270 270 270 270 270 270 270 270 270 269 268 267 268 268 268 268 267 266 265 265 265 265 265 265 265 265 264 264 263 261 258 257 257 256 254
274 274 274 275 275 276 276 277 278 278 278 276 277 276 276 275 275 275 274 274 274 274 275 274 274 274 277 276 279 281 281 281 281 281 281 281 282 279 275 275 274 275 274 272 272 271 270 270 270 270 270 270 270 270 270 269 269 269 270 269 268 268 269 269 269 268 267 266 266 266 265 265 264 265 265 264 263 262 261 258 257 258 257 258 259
274 274 274 274 275 276 278 278 277 277 277 277 277 277 275 275 274 274 274 273 273 273 274 274 275 274 273 273 278 277 279 280 280 280 280 280 279 276 275 274 275 275 274 273 272 271 271 270 270 270 270 270 269 270 270 270 270 270 270 270 270 270 271 270 270 268 266 266 265 265 265 265 264 263 263 263 262 259 257 256 255 255 256 258 256
272 276 277 277 278 277 277 276 276 277 276 276 276 276 274 274 274 274 273 273 272 273 273 274 274 274 274 275 275 277 278 276 276 276 277 277 278 276 275 274 274 274 274 274 273 272 272 271 270 270 270 270 270 271 271 271 271 271 270 270 269 269 270 267 266 265 264 265 265 265 264 262 259 259 260 259 258 257 256 255 255 255 254 254 254
272 273 275 277 276 276 275 275 275 275 275 275 275 275 274 273 274 273 273 272 272 272 273 273 273 274 275 276 275 276 275 275 275 275 275 276 276 275 275 273 273 274 273 274 274 274 273 272 272 271 271 271 272 272 271 271 270 270 269 269 268 266 265 264 264 264 265 265 264 262 260 257 255 255 255 256 256 254 253 254 254 254 253 252 253
270 271 273 276 275 274 273 274 274 275 274 274 274 274 274 274 273 273 272 272 271 271 272 272 273 274 275 275 277 277 275 274 274 274 274 274 274 274 274 273 273 272 271 272 272 273 273 272 271 271 271 271 271 270 270 270 269 268 268 266 265 264 262 261 262 261 261 259 259 257 255 255 254 254 254 254 258 256 253 253 252 252 253 253 252
273 273 273 273 273 273 273 273 273 272 273 272 273 273 272 272 272 272 272 272 271 271 271 272 272 272 274 276 277 278 275 274 274 273 273 273 272 272 272 272 271 271 269 269 269 270 270 270 269 269 269 269 268 268 268 268 267 267 266 264 264 262 260 259 258 258 256 255 254 255 253 253 254 254 255 258 253 252 250 251 251 251 251 252 252
273 273 273 272 272 272 272 272 272 272 272 272 272 270 271 272 272 272 271 271 271 270 270 270 270 270 272 276 277 278 274 274 272 273 272 272 271 270 271 270 269 267 266 266 266 267 267 268 267 267 267 267 267 266 267 266 265 265 264 263 262 262 261 257 255 254 254 254 254 253 253 253 255 252 251 253 251 251 251 251 251 250 251 251 251
271 271 271 271 271 271 270 271 271 271 271 270 270 270 270 270 270 270 270 269 268 268 269 268 267 269 271 274 275 275 272 272 272 272 271 271 271 270 269 266 265 265 265 265 265 266 267 266 265 264 263 263 263 263 264 264 263 263 262 261 259 258 257 256 256 255 255 254 253 253 252 252 253 252 253 253 249 251 250 249 250 251 250 248 249
271 270 270 270 270 270 269 270 269 269 268 268 268 268 268 268 268 267 267 267 265 265 265 264 265 267 269 272 273 272 271 270 268 268 269 270 269 268 266 265 265 264 263 262 263 264 264 264 263 262 261 259 259 259 259 258 259 260 260 260 259 258 258 257 257 254 255 254 254 253 252 252 251 250 251 251 251 250 251 250 250 253 251 250 249
271 270 270 270 269 268 268 268 267 268 267 267 267 267 266 265 264 263 263 263 263 263 262 262 262 264 266 270 269 268 268 267 266 266 265 266 265 264 263 263 263 262 261 261 260 261 261 262 262 261 260 258 257 256 255 254 254 254 254 255 257 257 256 254 251 252 252 252 253 252 252 251 250 251 253 249 250 250 249 249 248 250 250 250 250
270 270 269 268 267 266 266 266 266 266 265 265 264 264 264 262 262 261 260 261 262 261 261 262 263 264 264 267 267 267 266 265 264 263 263 262 261 261 260 260 259 259 258 258 258 258 257 257 258 258 257 256 255 255 253 252 251 251 251 250 250 249 249 250 251 252 252 252 252 251 251 251 251 250 252 252 250 251 250 250 250 250 248 250 249
267 267 266 265 265 265 265 265 264 262 263 263 263 262 262 262 262 261 261 262 262 262 262 262 263 263 263 264 264 264 264 263 262 261 260 259 258 258 258 258 258 257 256 256 255 255 255 255 255 255 255 255 254 254 253 252 251 250 250 248 247 248 250 252 250 251 251 250 250 251 250 251 249 250 250 251 249 250 250 250 250 250 249 249 250
266 266 266 265 264 264 264 264 263 264 263 263 263 263 262 262 261 261 261 262 262 262 263 263 262 262 262 261 262 262 262 261 261 260 259 258 257 257 257 256 256 256 256 255 254 254 254 254 253 254 254 254 254 254 253 252 251 250 249 248 250 254 254 253 250 248 251 250 249 249 249 250 250 250 251 250 251 250 250 249 248 250 250 250 249
264 264 264 263 263 263 263 263 263 263 262 263 263 262 261 261 261 260 260 260 260 260 261 261 261 261 261 260 260 260 260 260 260 259 258 257 256 256 256 255 255 255 255 255 254 254 253 253 253 253 253 253 253 253 252 252 252 252 249 249 255 256 255 255 254 253 252 249 250 250 251 251 249 250 250 250 250 250 249 250 249 250 249 248 248
262 262 262 262 262 263 263 263 262 262 261 261 261 261 260 259 259 258 258 258 258 258 259 259 260 260 260 260 259 259 259 259 259 258 258 257 256 255 255 255 255 255 255 254 254 253 253 253 253 253 253 253 253 252 252 252 251 251 253 255 256 256 256 255 254 254 254 252 249 251 251 251 250 250 249 249 248 248 250 250 249 249 248 248 249
Wind_Speed
9 9 8 9 9 10 10 10 11 9 9 9 9 9 8 9 8 8 7 9 8 9 10 10 10 10 10 10 10 10 10 9 8 9 9 9 8 9 10 10 11 9 9 9 7 9 10 10 9 8 8 9 7 7 6 6 5 5 5 6 6 5 6 5 6 3 1 1 4 5 4 4 4 5 5 5 4 4 4 4 4 3 3 4 3
10 9 8 8 9 9 9 8 9 9 10 9 10 9 9 9 8 7 9 8 10 11 11 10 9 9 10 10 10 10 10 11 10 9 10 10 9 8 10 11 11 10 10 11 9 8 9 11 9 9 7 9 8 8 7 7 7 6 5 6 6 5 3 5 4 6 6 1 2 1 3 4 4 3 7 4 5 3 4 3 3 3 3 3 3
9 9 9 9 10 8 8 9 9 10 11 10 10 9 9 9 8 9 9 9 8 10 11 10 10 10 10 10 10 10 10 10 9 10 11 12 12 10 10 11 12 12 12 12 12 9 9 10 10 9 6 7 7 7 6 7 6 7 6 4 6 5 4 3 5 5 6 5 4 4 5 4 6 4 5 5 4 4 3 3 4 3 2 3 4
9 9 9 9 9 8 9 8 10 11 12 10 11 10 10 9 8 9 9 8 10 8 9 10 9 10 10 10 10 10 10 9 10 11 12 13 13 13 11 11 11 13 13 13 12 12 12 11 10 10 9 9 8 7 6 5 6 6 6 4 5 6 4 3 2 4 4 6 3 6 4 5 4 3 5 3 4 3 4 3 2 3 3 3 3
8 10 10 11 9 10 9 9 11 12 12 10 11 10 10 9 8 9 9 9 9 8 8 8 9 10 10 11 11 12 12 12 12 11 10 11 12 13 13 12 11 12 12 13 13 13 12 12 12 10 10 10 8 8 7 7 6 6 6 5 5 5 4 4 4 3 4 6 3 2 3 2 3 3 3 4 3 2 2 3 3 3 3 3 3
8 9 10 11 11 11 11 10 12 12 11 10 11 10 10 9 9 8 9 10 9 9 10 9 10 11 11 11 12 13 13 12 13 13 13 12 11 11 12 12 12 12 11 11 12 11 12 11 12 12 12 13 11 9 8 9 7 7 7 6 5 5 5 4 4 4 4 4 5 4 2 4 2 3 3 4 4 2 2 2 2 2 2 2 2
8 9 10 11 11 12 12 13 11 10 10 10 9 9 10 10 10 10 9 10 10 10 9 11 10 11 12 11 11 12 12 12 12 12 12 12 13 12 11 10 9 9 9 10 10 10 10 11 12 13 13 11 11 11 10 9 8 8 8 7 6 6 6 5 4 4 4 4 3 4 4 3 3 4 3 3 3 3 3 2 4 3 2 2 3
10 10 10 11 12 13 12 11 10 10 8 8 9 10 10 9 10 9 8 10 10 11 12 12 11 11 12 12 12 11 12 12 12 12 11 12 12 12 12 12 10 8 8 9 10 11 11 10 11 11 11 10 11 11 11 11 8 8 6 6 6 7 6 5 5 5 5 5 6 5 4 4 3 2 1 1 0 3 3 4 5 3 4 1 1
11 11 11 12 14 11 9 9 8 8 8 8 9 11 11 10 9 9 10 10 9 10 10 11 11 11 10 11 11 10 11 12 11 12 12 12 11 12 12 12 12 12 11 10 9 9 8 8 9 9 10 11 13 12 9 8 10 8 6 7 7 7 5 4 5 5 4 4 4 3 4 5 6 4 5 4 5 6 2 2 4 2 1 2 3
11 10 12 13 10 7 8 7 9 9 10 11 11 10 10 11 10 11 11 11 10 10 10 10 11 12 12 12 11 10 11 9 13 19 16 14 14 11 12 13 13 13 12 11 10 9 9 9 8 12 12 13 13 12 12 11 8 8 10 9 8 7 7 6 6 6 5 6 7 5 5 7 7 6 5 4 3 1 2 3 4 2 1 4 3
11 11 14 12 9 8 8 9 9 11 11 10 10 11 11 11 11 11 11 11 11 11 10 12 12 11 13 13 14 12 11 10 17 17 18 13 11 11 12 11 10 11 12 13 13 11 9 8 8 10 11 10 10 13 13 13 11 9 11 11 10 11 9 8 7 6 7 7 5 4 6 7 7 4 6 4 2 4 5 4 5 2 3 3 6
11 12 13 10 9 10 10 10 11 12 11 12 12 12 11 11 12 12 12 11 11 9 11 14 13 12 12 13 13 13 12 14 15 14 15 17 13 11 10 11 11 11 11 12 11 10 10 9 8 8 8 8 8 9 11 12 12 11 12 12 13 12 11 11 8 7 7 6 6 7 5 7 4 5 5 3 5 4 4 4 4 4 5 4 3
11 11 10 9 9 9 9 10 11 11 12 11 10 9 10 11 12 12 13 12 10 12 13 12 13 13 13 14 14 13 11 15 16 20 19 19 19 14 10 11 11 12 11 11 11 11 10 10 8 7 7 11 8 7 8 8 11 13 12 13 12 14 14 14 11 8 7 7 8 7 8 5 5 6 5 4 3 5 3 3 4 5 5 4 4
10 12 10 9 9 8 8 8 9 10 8 8 8 9 11 13 12 10 9 9 12 12 12 14 13 13 13 13 13 12 12 17 20 24 23 23 19 16 11 12 11 12 12 12 11 11 11 11 10 9 7 8 7 8 7 8 7 7 7 7 7 9 13 15 15 12 9 8 8 9 7 6 7 3 4 4 4 5 4 5 4 4 4 6 3
10 10 8 6 7 8 9 10 11 10 10 10 11 12 13 12 11 10 10 12 13 13 14 13 13 12 13 12 12 12 11 19 23 25 25 21 21 16 10 9 8 8 9 11 12 12 12 11 11 11 10 9 9 11 10 9 7 7 7 7 7 7 7 8 8 7 7 7 7 8 4 5 5 4 4 5 5 5 5 6 6 5 2 0 1
10 7 8 9 10 9 9 9 9 9 9 10 11 13 13 13 13 11 10 9 9 9 10 10 12 12 12 13 12 12 11 18 21 23 24 20 22 13 10 12 11 11 11 10 10 10 10 11 11 11 12 11 12 17 12 9 8 8 9 7 6 6 6 6 7 6 7 6 6 6 5 5 6 5 5 5 4 4 3 1 2 2 1 2 5
10 9 9 9 9 8 9 10 10 10 10 11 12 13 12 12 11 8 10 10 11 11 12 12 10 11 11 11 12 11 10 16 20 22 21 19 18 11 10 9 9 10 11 12 12 11 11 11 11 11 11 11 14 18 16 13 8 10 9 9 7 5 7 6 10 14 14 12 11 11 10 11 12 13 14 14 10 7 4 4 5 4 3 6 6
8 7 10 9 9 9 10 10 11 11 11 13 13 12 11 9 10 9 11 11 11 11 9 8 8 9 10 11 12 11 10 14 21 22 23 22 17 12 10 10 8 8 6 6 5 6 9 13 12 11 11 10 15 18 19 14 10 10 9 8 7 8 8 6 5 7 13 15 15 15 15 14 15 16 16 15 15 8 9 8 4 5 5 5 6
8 10 11 8 8 9 9 10 10 11 12 13 12 12 12 12 10 9 9 9 9 7 7 7 7 7 8 10 11 11 8 8 15 19 20 20 15 8 8 7 9 9 9 8 7 7 7 9 11 9 9 11 18 18 20 15 10 10 10 8 9 9 10 7 7 6 5 3 4 3 4 5 3 2 3 7 9 3 8 5 4 6 6 5 6
10 7 6 6 7 8 8 10 11 11 12 11 10 11 9 8 9 10 9 8 8 8 8 8 9 9 8 9 9 10 9 8 12 19 19 20 15 11 8 10 9 8 8 9 9 7 7 7 9 14 15 16 17 19 20 20 12 10 8 9 9 12 7 6 7 6 6 6 6 4 4 4 4 4 3 3 5 3 6 5 6 6 6 6 6
6 7 7 7 7 9 8 10 12 11 11 11 10 9 8 9 8 9 9 8 7 7 9 8 9 8 7 7 6 6 7 8 10 17 18 17 18 13 9 9 8 9 9 9 9 10 8 8 7 13 17 16 18 20 20 21 16 10 10 10 11 6 7 6 7 9 6 4 4 4 4 4 5 5 5 5 4 4 5 5 7 7 7 7 7
5 5 7 7 8 8 9 9 9 10 8 8 8 9 8 8 9 10 8 8 10 10 8 8 8 7 5 6 6 6 6 10 8 16 18 20 19 19 11 10 11 11 9 9 9 9 10 9 8 13 19 19 20 19 19 19 20 10 11 14 13 12 8 6 5 5 5 5 4 5 5 5 5 5 6 6 5 6 7 7 7 7 6 6 7
5 6 6 7 7 8 8 9 9 7 7 9 10 10 8 8 8 8 9 8 9 9 8 7 6 5 4 4 4 5 6 7 13 14 20 20 21 18 17 12 15 11 12 11 11 10 8 8 8 14 19 21 19 18 18 19 17 10 15 16 15 15 10 6 6 5 5 6 6 7 7 6 6 6 6 6 7 7 6 5 6 5 5 5 5
5 6 6 7 6 7 7 7 7 7 8 9 9 9 8 8 8 8 8 9 8 8 6 6 6 6 6 5 4 5 5 7 11 15 16 21 21 24 22 17 16 10 9 9 8 9 9 8 9 16 19 20 19 19 18 17 11 14 15 17 17 13 7 7 6 7 7 7 7 7 7 6 6 6 7 8 8 7 6 5 5 5 5 4 3
5 6 6 6 6 5 5 6 7 7 7 9 9 8 7 7 8 6 7 7 7 7 6 6 7 7 6 7 6 5 6 6 7 12 18 19 21 22 21 21 21 18 11 7 8 8 9 13 16 18 18 17 18 18 16 18 20 17 17 16 14 7 7 7 8 7 7 7 7 6 6 7 7 8 7 5 3 2 2 3 3 3 1 1 1
6 7 6 5 5 4 5 5 5 6 6 7 8 8 10 9 9 8 7 7 7 8 7 7 7 7 7 6 7 7 7 7 8 8 10 13 15 22 23 23 20 18 13 8 9 12 14 16 18 18 16 15 11 9 8 8 16 18 16 14 7 7 7 7 7 7 6 6 6 6 6 5 5 4 3 4 4 5 5 4 3 4 3 4 2
7 6 6 5 4 4 6 6 5 5 5 4 5 6 6 7 8 8 8 8 8 7 7 8 7 7 8 8 7 7 7 7 7 8 9 10 11 13 15 14 18 17 12 8 10 9 11 11 9 12 10 15 14 9 8 9 9 10 8 8 6 6 6 7 7 6 5 4 3 3 2 3 3 4 3 4 4 3 3 4 4 5 4 2 3
7 6 6 4 5 5 6 7 8 6 6 7 7 6 5 7 8 9 9 9 9 8 8 8 9 9 9 8 7 7 7 8 9 10 11 10 9 9 10 10 11 11 10 8 8 8 8 9 11 9 8 9 9 7 7 6 7 6 5 5 5 5 6 6 6 5 4 4 3 3 4 3 4 4 3 3 4 4 4 5 5 5 3 3 1
6 5 5 4 5 4 4 5 6 6 6 5 4 5 9 9 8 6 5 6 9 10 10 9 9 8 9 10 10 10 8 10 12 9 10 11 11 10 10 10 9 9 10 11 8 7 7 7 7 8 8 9 8 8 7 6 5 6 6 5 5 5 5 4 5 5 4 5 5 5 5 4 4 4 4 3 4 5 4 4 4 5 2 3 6
5 5 5 5 4 4 3 4 4 5 6 6 6 2 2 4 3 7 6 6 7 6 5 8 8 8 8 8 10 13 13 11 11 18 17 17 16 14 11 11 11 8 11 19 12 8 9 9 9 9 9 9 8 8 8 7 7 6 6 7 6 5 5 5 5 5 4 5 5 5 5 5 5 5 5 5 4 4 5 6 4 4 4 5 6
6 5 5 5 6 6 5 5 5 5 5 6 5 6 5 3 6 6 4 5 7 7 5 4 7 8 8 7 7 9 2 7 15 18 18 18 18 17 15 15 16 15 17 13 10 9 9 9 9 8 9 8 8 8 8 8 8 7 7 7 6 6 6 6 5 4 5 5 4 5 5 5 5 5 6 5 5 5 4 3 4 4 5 6 6
7 6 6 5 5 5 5 5 5 5 5 5 6 6 6 6 4 6 8 7 7 8 7 8 9 11 10 8 6 4 7 11 14 18 20 20 20 20 20 19 19 18 19 16 9 8 9 9 8 8 8 8 8 7 8 8 8 8 7 7 7 6 7 7 5 5 5 5 5 5 5 5 5 5 5 4 5 4 4 4 5 6 6 6 6
6 5 5 5 6 5 6 6 6 6 6 6 5 5 7 7 7 6 4 7 7 7 8 9 11 12 13 13 13 11 10 11 15 16 19 20 21 20 19 20 20 20 21 12 9 8 8 8 8 7 8 9 8 8 8 8 7 7 7 7 7 6 6 5 5 5 5 6 6 6 5 5 5 5 5 4 5 5 5 5 5 5 5 5 5
5 5 5 6 7 6 6 6 6 6 5 5 6 6 5 6 6 8 9 6 5 4 7 10 11 13 13 14 13 12 12 14 15 16 17 18 19 19 18 13 18 21 18 10 9 9 8 8 8 8 8 7 7 7 7 7 7 7 6 6 6 5 5 4 5 6 5 5 6 5 4 5 5 5 4 4 4 4 4 6 5 5 5 6 6
5 5 8 7 6 7 6 6 6 6 6 6 6 6 6 5 7 8 8 10 9 7 5 5 9 12 10 10 13 13 13 14 15 14 16 17 18 18 17 9 11 10 11 6 7 7 8 9 8 8 8 8 8 8 8 7 7 7 7 6 6 6 5 5 5 5 5 5 6 5 5 5 5 5 6 5 5 5 6 6 6 6 6 5 5
5 5 5 7 6 6 6 6 6 7 7 6 6 6 5 6 6 5 5 5 6 6 4 3 2 5 10 8 11 12 12 13 13 15 15 18 19 20 11 9 8 9 8 7 7 7 6 7 7 7 7 6 6 7 7 7 7 7 6 6 6 5 5 5 5 5 5 5 6 5 4 5 5 5 5 5 7 7 6 6 6 5 5 5 4
5 5 5 5 5 6 6 6 6 6 6 5 6 6 5 5 4 6 5 6 6 5 5 5 5 4 3 3 7 10 12 12 13 14 16 17 21 14 7 9 9 9 8 8 7 6 7 6 6 6 7 7 7 7 6 7 6 6 6 6 6 6 6 6 6 5 6 5 5 6 6 6 6 6 7 6 6 6 6 5 5 5 6 6 5
5 6 6 6 6 6 6 6 6 7 6 6 5 6 6 6 6 6 6 6 6 7 7 6 5 6 7 6 6 5 8 12 14 12 13 15 13 8 7 6 7 8 8 7 7 7 6 6 6 7 6 7 7 7 7 6 6 6 6 6 6 6 8 8 9 9 8 7 7 7 7 7 7 7 6 7 7 7 6 5 6 5 4 5 3
3 5 8 9 7 6 6 6 6 7 6 6 6 6 6 6 6 6 6 6 7 6 5 6 6 6 6 6 6 7 9 8 8 8 9 8 7 6 6 6 6 6 6 7 7 7 6 7 6 6 6 7 7 7 7 6 6 6 6 6 6 6 8 7 7 7 7 6 6 6 6 6 6 6 6 6 6 6 6 5 5 6 6 5 5
2 1 3 5 3 4 4 4 5 6 4 6 6 5 6 6 7 7 6 7 7 7 6 7 7 6 6 7 8 8 8 8 8 7 7 8 7 7 7 7 7 7 7 7 7 7 7 6 7 7 7 7 7 6 6 6 6 6 6 7 7 7 7 6 7 7 7 7 6 6 6 6 6 6 5 6 7 6 5 6 5 5 6 4 4
3 3 3 4 4 4 4 5 5 6 6 6 6 6 7 5 6 5 6 7 7 7 7 6 6 5 6 7 12 11 7 7 7 7 6 7 6 6 7 7 6 6 5 6 6 6 6 6 6 6 6 6 6 6 6 6 6 6 6 6 6 6 6 6 6 6 6 6 6 6 6 5 5 6 6 6 5 6 6 4 4 4 5 3 4
5 4 4 3 4 4 4 4 3 4 5 4 5 6 4 4 5 6 6 6 5 6 7 6 5 5 6 12 14 15 7 4 5 5 5 5 5 5 5 5 5 5 5 5 5 6 5 6 5 5 6 5 6 5 6 6 6 6 6 6 6 6 6 6 6 6 6 7 6 6 5 6 6 6 6 5 5 5 4 4 6 5 3 3 3
4 5 4 3 4 5 4 4 4 5 5 5 5 4 4 5 6 5 6 5 7 6 7 7 5 5 6 10 13 14 6 5 4 6 5 5 4 4 4 4 4 5 4 4 4 6 6 6 6 5 6 6 6 7 7 6 6 6 6 6 6 6 6 6 5 6 5 5 6 5 6 5 6 5 5 5 4 5 5 4 4 4 4 3 3
3 3 3 3 3 3 2 3 3 2 2 2 3 2 3 3 3 4 4 5 5 5 6 5 5 6 5 7 9 7 5 5 4 5 5 5 5 4 4 4 4 5 4 4 4 4 5 6 5 4 3 4 3 3 4 5 5 6 6 6 5 5 5 5 6 6 7 7 6 6 5 5 4 5 5 5 4 5 4 3 4 4 3 3 3
3 3 4 4 3 4 4 3 3 3 2 2 3 2 1 2 3 2 2 3 3 3 3 4 5 5 4 5 6 4 4 4 3 3 4 4 4 4 4 5 4 5 5 4 4 4 5 5 5 6 5 3 3 4 4 4 4 5 5 6 6 6 7 7 7 6 6 6 6 6 5 6 5 5 6 5 4 5 4 4 4 4 3 3 3
3 3 3 4 4 2 3 4 3 5 4 4 4 3 3 3 2 3 3 3 4 5 4 4 4 4 4 4 3 3 4 4 3 3 3 4 4 4 4 5 5 5 5 5 4 4 4 5 5 6 5 5 4 4 4 4 4 4 4 4 6 6 5 5 3 6 6 6 7 6 6 5 5 6 6 5 4 5 5 3 3 4 5 4 4
3 4 4 4 5 4 4 4 6 5 5 5 4 5 5 4 5 4 3 4 5 4 5 5 5 5 5 4 4 4 4 4 4 4 4 4 5 5 5 5 5 5 4 3 3 4 4 4 4 5 5 5 4 5 4 3 3 3 3 3 3 3 4 4 5 5 5 5 5 6 6 6 6 5 6 4 4 5 4 5 5 5 4 4 4
4 3 4 4 6 7 6 5 6 4 4 4 5 4 4 4 4 4 4 4 5 4 5 5 4 4 4 3 3 4 4 4 4 4 4 4 4 4 4 5 5 4 4 4 3 3 4 4 4 4 5 5 5 5 4 4 3 2 2 2 2 3 4 4 4 4 4 5 5 6 6 6 5 5 5 6 5 5 5 6 4 3 4 4 5
2 2 3 4 4 5 4 4 3 4 5 5 5 4 3 4 4 4 4 5 5 5 5 5 5 5 4 4 4 4 4 3 4 4 4 4 4 3 4 4 4 4 4 4 3 3 4 4 4 4 5 5 5 5 5 4 4 3 3 3 3 5 6 5 4 4 5 6 5 4 5 5 5 5 5 4 6 5 5 4 4 4 2 2 3
4 4 3 3 3 4 2 2 3 3 2 3 4 4 3 4 4 4 4 4 4 4 4 4 5 5 5 5 4 4 5 5 4 4 4 4 4 3 4 4 3 3 3 4 4 3 3 3 4 3 4 4 4 4 4 4 4 5 4 4 7 8 8 8 7 6 6 4 5 5 6 5 4 4 5 5 5 5 5 5 4 5 4 3 4
4 4 4 5 4 4 3 3 3 3 3 3 2 2 2 2 2 2 2 3 3 3 3 4 4 4 4 4 3 4 4 4 4 4 4 4 4 4 3 3 3 3 2 3 3 3 3 3 3 3 3 3 4 4 4 4 4 5 6 8 9 10 9 8 6 7 7 5 4 5 6 6 5 6 5 5 5 5 7 5 4 4 4 4 3
Wind_Direction
196 204 198 208 202 202 199 195 198 196 195 194 195 198 195 193 192 185 166 181 170 176 181 184 185 184 176 175 174 172 170 171 176 167 167 166 170 166 165 167 161 163 156 157 160 156 157 156 163 166 160 150 151 144 140 144 134 130 140 136 135 147 140 141 163 186 261 140 148 180 184 152 189 201 217 222 237 243 221 217 223 232 246 257 272
196 197 202 204 208 207 202 197 196 198 200 197 198 197 196 196 191 171 182 182 176 180 184 184 182 180 180 180 179 177 175 174 172 169 169 169 172 172 170 169 165 161 162 161 164 164 158 156 164 167 170 152 150 153 154 150 149 144 156 150 151 155 155 131 170 161 192 157 174 98 167 176 196 190 196 210 237 223 228 239 241 226 242 261 268
188 189 197 203 207 207 203 198 195 201 202 202 201 196 197 195 185 183 183 180 186 184 183 180 181 180 183 183 180 180 178 175 175 174 176 174 174 178 178 173 168 166 170 169 167 160 160 164 167 163 157 148 156 154 154 156 153 152 155 155 153 156 149 129 132 182 180 210 177 169 193 199 200 207 207 212 211 194 210 235 237 244 239 241 257
185 186 195 203 202 202 207 201 197 201 204 203 201 199 197 196 185 188 185 176 184 188 179 178 178 182 184 183 183 180 179 180 181 184 179 178 178 177 178 179 176 175 171 168 166 167 169 164 169 165 158 150 155 156 160 152 156 154 153 161 153 156 158 140 148 153 180 179 223 184 199 181 229 226 202 213 200 217 207 235 227 225 245 262 257
192 192 190 195 198 202 207 205 207 204 206 201 204 198 200 195 189 191 181 184 185 176 179 176 179 181 186 186 185 185 186 183 184 187 186 183 180 177 179 179 179 179 176 172 170 170 170 172 167 163 160 153 160 163 165 162 165 157 164 166 159 149 145 158 155 129 149 187 210 235 182 212 209 207 203 207 254 229 220 210 227 231 263 266 256
203 197 194 193 199 203 205 205 213 211 205 205 202 199 198 195 191 195 187 187 184 185 180 181 183 187 190 190 189 190 186 186 188 188 185 182 181 181 179 179 179 179 177 173 170 171 172 171 168 167 166 166 170 165 163 166 163 168 170 168 154 145 156 163 160 162 169 192 173 233 223 201 254 230 210 195 212 262 270 266 272 249 228 281 274
203 204 203 201 200 207 204 207 205 211 210 205 199 200 201 197 191 194 189 190 188 186 186 184 190 189 193 187 192 191 189 188 190 190 188 184 179 176 178 179 176 176 174 171 171 172 175 174 174 174 172 169 161 166 166 169 172 178 178 164 153 151 164 175 171 180 188 189 214 211 231 257 200 239 265 193 203 196 229 280 281 260 207 204 277
201 204 203 210 211 209 206 202 202 204 208 209 203 203 203 201 198 192 184 194 195 192 188 190 191 193 194 191 193 191 190 190 191 190 188 185 179 178 175 173 171 170 169 174 176 178 180 180 177 174 171 167 166 165 167 170 168 172 169 151 153 160 172 170 177 186 194 203 211 218 226 234 271 241 195 129 283 292 212 205 243 250 257 277 235
203 203 205 213 219 211 198 198 195 195 198 205 209 206 204 204 199 195 194 198 196 197 193 190 189 195 195 193 191 191 193 196 193 186 183 186 184 176 172 171 172 172 175 175 176 175 176 179 179 174 171 168 169 169 167 157 160 164 166 160 163 171 169 175 186 189 202 199 228 213 216 240 242 221 249 230 218 230 228 187 249 239 215 267 280
203 203 210 218 217 206 201 193 192 191 197 204 209 207 204 202 200 201 201 199 196 194 192 191 194 195 193 196 194 192 199 198 196 191 185 181 179 178 177 178 176 173 170 170 174 176 177 177 179 173 166 167 169 168 160 162 168 163 164 169 172 172 179 182 192 199 191 200 221 202 218 237 233 220 222 232 202 206 197 223 248 262 342 281 246
203 204 215 217 206 194 193 199 190 198 202 202 204 205 206 200 201 203 201 198 199 195 189 193 199 196 196 195 196 198 198 199 193 189 187 180 177 180 177 174 174 173 175 174 173 172 173 174 169 168 165 166 168 164 162 167 170 156 164 176 176 175 176 188 204 189 194 211 207 195 218 237 238 200 224 221 210 204 230 223 241 275 268 297 299
206 212 218 210 198 196 198 193 196 203 199 204 201 203 202 202 202 202 199 199 200 188 195 201 199 197 199 199 201 201 200 196 187 175 174 180 178 177 176 175 177 178 178 177 173 168 167 166 168 166 169 166 160 165 167 168 169 171 175 185 193 195 189 181 184 190 201 203 211 219 202 232 225 197 224 185 224 236 228 204 206 217 247 247 255
211 218 219 210 207 204 200 199 203 205 207 204 201 196 202 207 207 202 202 199 188 194 202 200 204 201 200 201 203 200 201 186 173 182 181 175 178 175 180 175 175 178 176 175 172 170 166 161 158 160 156 152 148 149 154 168 176 181 186 192 198 201 205 208 201 191 181 200 214 222 209 212 209 225 195 195 173 209 219 227 221 219 219 232 235
211 219 215 208 204 201 203 203 210 214 208 202 198 200 205 213 211 207 202 193 196 199 200 204 204 204 203 203 203 201 199 187 184 190 187 184 175 171 179 178 180 178 176 173 172 170 169 165 159 155 151 150 152 148 157 162 164 173 187 193 199 207 212 215 217 203 189 201 205 221 222 172 218 194 198 181 174 212 207 234 214 229 228 234 219
219 222 220 215 209 208 204 201 208 205 199 197 197 203 208 213 209 207 202 200 199 199 201 203 206 205 204 203 204 203 203 196 194 191 192 184 173 171 175 167 171 171 176 175 174 175 173 167 159 154 156 165 166 167 167 170 168 180 188 199 201 204 207 215 213 205 201 211 213 225 214 197 216 196 190 206 203 208 197 210 209 217 216 49 31
225 217 219 213 211 207 202 208 212 209 207 204 205 210 210 208 208 204 205 209 211 206 209 206 206 206 204 202 202 206 204 199 198 197 192 181 172 174 171 173 176 180 176 174 169 171 170 164 159 164 170 171 175 176 172 164 173 185 198 208 212 213 223 225 226 220 212 209 208 215 207 203 209 198 198 204 221 218 203 125 102 114 138 282 261
227 218 222 218 211 205 203 206 208 207 206 207 212 214 211 211 211 199 207 209 207 207 208 206 205 204 204 203 203 207 206 197 196 198 197 179 170 181 177 180 176 173 172 174 178 173 171 171 167 162 165 175 180 181 178 167 177 190 201 209 211 214 232 227 230 232 232 228 222 221 223 225 235 237 237 236 229 200 159 168 211 160 213 256 267
229 222 227 219 210 205 205 204 208 207 205 211 213 215 213 212 208 198 205 205 211 212 210 209 207 207 205 207 204 206 208 202 197 194 193 188 180 177 171 173 171 162 157 158 152 163 171 169 169 167 167 172 178 183 184 175 183 192 196 202 206 218 233 217 218 231 235 236 236 236 236 237 236 239 240 245 254 216 162 210 205 159 221 232 259
227 225 227 217 210 207 205 206 208 207 210 214 212 212 208 207 203 195 205 205 212 203 202 206 206 206 207 207 208 209 208 204 205 202 194 188 176 161 163 155 165 172 164 162 157 160 168 176 174 163 165 171 181 187 189 182 185 188 191 190 208 218 225 197 202 209 217 226 254 247 269 279 301 321 318 300 288 212 181 197 159 169 217 229 244
230 230 229 214 211 208 205 207 210 209 213 213 210 213 206 200 195 194 200 199 200 194 195 198 198 204 200 202 202 201 191 187 192 192 191 183 161 164 169 167 173 165 166 165 164 169 165 169 181 180 174 178 185 194 199 193 184 189 178 193 204 225 207 183 203 198 206 208 224 224 240 259 271 272 265 257 266 169 176 171 176 185 212 237 232
231 227 220 217 214 212 209 208 212 214 211 210 206 205 195 197 190 191 195 195 194 194 194 197 199 202 193 194 192 193 183 178 189 190 187 164 160 154 174 175 163 161 173 177 176 170 175 182 189 190 187 187 194 200 202 206 194 180 187 200 206 202 139 181 201 197 199 208 217 224 235 240 239 237 234 230 229 199 190 196 194 200 205 219 231
228 224 220 220 219 215 213 215 212 214 207 196 193 200 197 190 190 191 190 189 194 197 192 196 198 195 179 177 182 181 170 174 173 182 172 169 167 166 171 179 173 174 175 183 180 185 184 181 179 192 196 200 202 202 202 206 206 182 200 205 206 193 165 179 175 179 183 192 206 216 220 223 225 222 226 224 226 222 213 215 214 213 219 209 213
228 226 225 224 222 218 216 211 209 200 198 193 192 196 186 187 189 183 183 187 191 194 191 190 186 178 159 169 169 162 162 169 173 178 179 175 170 170 176 179 181 178 179 183 188 186 182 183 186 188 196 202 203 201 203 206 210 201 198 204 204 202 177 157 165 178 190 200 203 213 212 210 212 217 218 222 227 226 223 221 218 214 220 217 221
238 235 234 230 225 224 217 212 206 196 193 187 191 186 183 185 180 183 181 181 184 188 186 174 172 171 171 164 158 159 166 172 181 175 178 179 178 186 186 181 182 187 189 193 184 183 177 179 176 183 194 199 202 205 206 207 208 210 198 201 204 200 179 169 182 193 201 205 209 212 212 207 207 217 217 218 221 218 215 211 222 224 223 219 208
247 245 242 237 228 225 211 206 200 195 191 181 183 181 178 170 177 182 172 179 180 184 181 173 181 178 171 175 170 165 166 172 180 182 183 189 189 189 186 188 192 186 187 185 176 183 177 174 177 184 190 193 200 206 210 213 212 210 210 201 196 192 196 196 196 193 194 199 207 210 210 206 207 214 217 205 178 151 160 225 211 218 117 82 91
256 248 246 235 226 196 197 204 198 193 185 187 186 180 175 176 177 174 173 180 179 181 178 175 181 174 178 172 172 172 173 174 185 188 192 192 195 198 195 193 191 187 185 172 165 168 174 177 179 183 187 192 196 201 204 203 211 209 206 207 197 196 198 201 202 198 199 193 198 202 207 205 211 195 149 140 162 196 191 196 176 228 200 228 266
252 255 244 232 206 187 185 181 179 179 177 173 171 171 172 173 168 170 175 178 179 180 176 176 180 177 178 178 172 172 176 182 185 188 194 195 199 200 195 190 190 189 189 178 176 178 176 174 177 182 181 191 192 188 184 191 199 207 198 197 192 186 190 193 196 196 196 186 190 184 153 143 106 118 157 166 189 189 168 182 189 221 205 196 178
237 241 230 215 204 194 190 179 173 172 177 168 160 160 172 171 169 176 178 180 178 185 180 185 186 184 182 172 168 170 185 191 194 191 192 191 191 189 191 190 191 193 188 181 172 165 164 169 175 178 176 187 186 185 185 183 184 183 183 173 169 168 181 192 194 192 190 169 161 132 114 131 153 162 145 164 187 184 171 179 193 219 188 139 188
229 229 219 200 211 205 192 180 179 170 168 166 166 177 174 175 181 191 206 189 185 181 184 194 194 190 177 173 173 185 189 202 207 186 183 184 182 183 190 191 187 189 185 161 148 151 158 167 170 169 175 179 179 181 178 176 182 181 181 179 183 182 184 184 205 203 172 143 159 162 173 156 175 167 169 179 197 197 189 193 214 195 208 172 222
219 216 195 196 195 183 184 183 175 166 160 158 142 87 76 152 171 172 185 188 195 205 184 192 189 178 182 193 184 181 196 206 173 182 188 187 189 189 190 188 189 177 171 161 155 160 175 173 176 175 178 178 181 181 182 180 179 184 189 194 187 185 193 203 206 196 171 181 177 173 178 175 185 184 189 202 213 200 202 199 212 188 183 218 232
221 208 187 195 188 183 175 171 177 161 160 152 145 139 111 77 102 109 120 151 161 162 145 127 158 180 181 183 197 205 178 154 174 184 186 190 191 192 191 194 193 186 179 161 171 174 177 182 183 181 183 183 186 187 181 180 185 183 186 188 190 194 201 204 207 183 184 179 181 188 189 185 193 190 195 205 200 206 192 208 176 190 207 217 229
219 209 197 187 177 178 170 167 159 156 160 155 154 148 142 123 72 107 126 140 148 153 157 158 174 184 192 190 174 177 174 174 180 190 194 194 196 198 200 199 199 190 189 168 168 187 183 184 184 186 179 183 189 181 182 183 184 185 181 188 201 195 197 206 186 176 181 178 185 190 191 197 199 197 195 193 189 194 192 203 197 205 223 222 229
218 208 189 174 168 165 163 166 168 164 161 160 160 155 150 149 144 127 122 132 141 154 165 168 179 190 193 194 192 187 183 178 182 188 191 194 194 196 195 195 196 193 191 186 187 184 187 188 186 184 182 189 183 180 184 183 184 186 189 195 202 197 192 187 158 172 180 188 181 198 198 200 195 190 193 191 195 207 201 206 213 215 214 226 241
209 193 183 177 166 168 170 171 167 167 164 164 162 162 163 156 146 141 132 126 129 144 170 185 189 191 195 193 190 188 186 183 182 181 185 188 189 189 188 188 192 194 196 191 186 191 183 187 188 187 190 186 180 176 181 183 183 183 187 192 187 169 180 152 154 175 178 189 188 207 197 197 185 181 198 197 210 207 214 220 209 210 224 220 229
191 188 179 172 173 171 166 164 163 159 164 167 167 163 158 153 151 154 158 156 154 152 146 164 184 182 182 187 186 185 186 187 186 183 181 182 180 177 173 172 184 192 196 172 185 185 185 190 189 187 180 183 183 178 181 176 174 176 180 178 172 170 168 167 182 174 181 185 190 194 193 191 197 194 193 202 206 212 220 221 222 212 216 228 226
180 176 178 176 167 165 165 166 163 166 168 171 168 162 157 158 161 158 146 141 144 144 132 131 95 167 170 169 177 171 166 166 170 171 171 174 174 170 167 180 178 189 182 175 179 185 181 186 181 180 177 177 171 177 176 172 178 174 167 165 176 179 178 182 188 186 186 181 190 191 188 197 194 197 201 206 208 215 217 218 217 216 211 216 215
181 180 177 177 168 161 161 157 163 162 161 157 156 154 155 152 148 144 149 153 151 145 146 144 128 118 108 154 163 157 157 158 161 165 171 174 175 174 172 176 178 176 177 180 176 175 182 186 175 171 172 173 174 171 165 171 167 170 177 179 178 184 193 187 186 182 185 189 195 192 191 198 197 199 195 210 220 215 219 215 209 207 205 213 212
184 179 176 165 156 155 153 159 153 150 151 157 158 156 154 159 159 160 160 160 158 156 161 162 161 165 164 176 163 160 164 163 160 163 170 174 177 173 177 179 177 180 175 174 177 176 178 174 169 171 170 165 165 164 165 167 170 172 182 183 189 191 191 188 196 190 191 193 196 199 199 203 198 196 195 204 212 213 217 204 195 206 213 210 205
190 183 173 165 162 159 157 150 153 152 155 161 165 162 166 162 162 164 163 157 162 166 166 169 172 174 171 165 157 161 154 168 176 178 177 182 180 168 171 175 177 179 172 174 170 174 172 172 168 163 163 167 165 169 169 172 173 178 179 178 185 189 195 178 185 184 189 195 200 199 199 202 195 195 193 196 210 205 207 201 194 191 200 219 227
146 158 160 146 125 140 142 155 154 154 162 161 169 163 161 168 174 173 165 164 169 172 175 180 183 179 173 169 169 170 173 178 177 178 176 181 178 171 173 178 183 181 174 171 173 175 173 169 167 168 170 171 172 170 170 168 174 175 173 177 175 187 189 177 178 179 190 193 193 190 189 195 197 189 194 196 203 192 191 199 201 196 197 205 222
139 140 152 154 143 139 142 151 164 166 167 170 167 173 180 174 168 166 168 171 168 172 184 189 187 177 182 180 179 178 174 177 173 180 185 182 172 171 178 178 176 172 169 166 168 169 168 162 165 169 166 166 162 164 164 164 162 163 170 168 170 180 177 184 180 182 184 183 189 191 198 190 183 172 200 215 198 187 197 188 193 195 202 204 204
145 145 143 141 138 140 151 169 168 158 155 155 166 174 165 167 167 169 171 171 173 175 180 187 184 175 184 185 186 184 179 179 168 173 174 176 169 175 168 158 157 159 164 165 160 157 150 151 153 155 159 155 152 155 152 157 160 162 165 168 177 176 179 190 190 189 182 187 190 191 190 189 186 190 194 186 189 185 185 188 190 192 196 206 210
146 147 145 146 150 161 168 159 153 158 160 168 177 164 162 166 176 174 176 177 176 178 179 180 169 169 181 191 190 193 174 181 165 172 169 171 165 156 154 146 140 131 134 132 132 141 142 145 147 153 157 161 161 159 165 167 167 167 169 179 181 184 193 193 188 194 185 182 189 190 183 186 180 179 187 188 184 183 191 191 192 193 205 200 206
112 112 124 128 120 108 100 131 145 150 149 135 129 143 159 163 158 168 174 172 175 179 178 173 161 169 175 192 194 199 176 174 168 170 161 159 158 151 133 113 112 105 102 104 108 116 132 135 134 121 107 119 119 128 145 152 157 163 167 170 177 187 192 191 195 194 186 187 184 181 184 185 186 177 190 188 170 184 194 185 197 204 207 211 204
100 107 124 126 122 120 105 99 88 92 92 90 82 69 96 114 149 147 147 156 152 148 148 151 162 165 178 188 193 183 160 155 150 140 152 151 144 123 114 114 123 123 117 110 107 118 120 129 133 139 142 127 129 137 137 143 157 160 167 171 180 193 199 202 207 192 177 173 181 181 184 181 189 187 193 188 180 185 195 201 200 203 212 211 200
118 125 133 131 110 103 101 100 89 99 104 102 108 99 91 81 96 115 128 127 141 146 140 146 157 171 179 181 138 125 140 126 129 123 117 117 119 117 113 118 116 116 109 112 117 119 125 136 147 150 152 151 145 132 128 129 134 137 150 169 183 195 196 181 150 154 173 174 174 180 178 182 188 189 187 186 190 183 197 197 193 201 203 208 210
55 90 88 124 109 116 106 120 113 122 117 120 126 136 137 132 127 124 126 138 139 141 143 154 157 170 176 172 146 139 131 136 133 134 132 125 122 127 121 114 113 103 99 103 102 112 117 118 127 140 145 147 146 146 146 137 125 125 130 138 144 145 152 163 171 171 171 176 164 160 174 180 187 187 187 177 186 195 191 197 196 203 206 204 206
27 62 66 99 96 94 120 124 122 123 115 120 130 134 137 134 136 140 143 143 141 144 145 149 157 160 155 141 123 126 129 125 122 120 121 120 119 122 127 131 131 128 119 114 104 105 113 122 126 130 140 147 157 161 163 161 156 148 142 136 141 152 156 155 162 165 163 157 164 171 171 178 181 180 183 182 192 187 191 208 202 201 200 204 204
37 58 83 41 48 67 117 134 135 141 142 139 135 138 139 142 143 147 147 148 150 155 157 160 159 156 151 144 135 126 124 126 128 122 115 118 119 117 120 120 119 127 132 139 140 137 134 131 136 144 152 160 162 160 161 160 169 175 177 176 170 177 174 164 157 168 159 152 154 155 159 165 176 185 187 189 194 191 198 197 190 199 196 192 193
36 32 44 41 55 32 50 77 88 108 115 130 135 135 135 136 143 148 146 140 140 145 150 149 156 157 152 149 144 141 138 140 135 134 127 125 121 122 115 124 128 139 146 156 162 160 154 153 156 152 157 156 158 157 164 172 177 181 182 185 193 191 190 188 177 175 164 160 161 166 165 173 173 182 193 194 191 189 196 202 197 196 198 198 206
38 38 37 38 37 32 43 50 53 52 54 66 72 94 113 112 113 111 119 130 140 143 139 143 140 138 138 138 134 138 136 130 126 129 132 133 132 129 130 132 148 159 166 157 165 171 176 167 174 174 169 169 176 181 186 190 189 187 192 198 203 202 194 190 185 185 163 157 158 158 169 174 179 187 194 194 185 188 200 195 193 193 197 196 199